Weather History for Dayton, OH

Change the Weather History Date:

Friday, March 29, 2013

  Actual Average Record
Temperature  
Mean Temperature 42 °F 45 °F  
Max Temperature 54 °F 55 °F 82 °F (1910)
Min Temperature 29 °F 35 °F 18 °F (1923)
Degree Days  
Heating Degree Days 23 20  
Month to date heating degree days 876 726  
Since 1 July heating degree days 4926 5001  
Cooling Degree Days 0 0  
Month to date cooling degree days 0 0  
Year to date cooling degree days 0 0  
Moisture  
Dew Point 28 °F    
Average Humidity 61    
Maximum Humidity 78    
Minimum Humidity 44    
Precipitation  
Precipitation 0.00 in 0.12 in 1.36 in (1985)
Month to date precipitation 3.15 3.08  
Year to date precipitation 7.54 8.03  
Snow  
Snow 0.00 in 0.10 in 2.20 in (1970)
Month to date snowfall 14.2 3.3  
Since 1 July snowfall 35.9 22.6  
Snow Depth 0.00 in    
Sea Level Pressure  
Sea Level Pressure 30.29 in    
Wind  
Wind Speed 4 mph (NW)    
Max Wind Speed 15 mph    
Max Gust Speed 20 mph    
Visibility 10 miles    
Events      
T = Trace of Precipitation, MM = Missing Value Source: NWS Daily Summary

Daily Weather History Graph

Daily Weather History Graph

Search for Another Location

Airport:

Trip Planner

Search our weather history database for the weather conditions in past years. The results will help you decide how hot, cold, wet, or windy it might be!

Date:

Astronomy

Mar. 29, 2013 Rise Set
Actual Time 7:25 AM EDT 7:58 PM EDT
Civil Twilight 6:58 AM EDT 8:25 PM EDT
Nautical Twilight 6:26 AM EDT 8:57 PM EDT
Astronomical Twilight 5:53 AM EDT 9:30 PM EDT
Moon 10:57 PM EDT (3/29) 8:33 AM EDT (3/29)
Length of Visible Light 13h 27m
Length of Day
12h 33m
Waning Gibbous, 93% of the Moon is Illuminated
Mar 29
Waning Gibbous
Apr 3
Last Quarter
Apr 10
New
Apr 18
First Quarter
Apr 25
Full

Hourly Weather History & Observations

Time (EDT) Temp. Windchill Dew Point Humidity Pressure Visibility Wind Dir Wind Speed Gust Speed Precip Events Conditions
12:56 AM 35.1 °F - 26.1 °F 70% 30.33 in 10.0 mi Calm Calm - N/A   Clear
1:56 AM 34.0 °F - 25.0 °F 70% 30.33 in 10.0 mi Calm Calm - N/A   Clear
2:56 AM 32.0 °F - 24.1 °F 73% 30.32 in 10.0 mi Calm Calm - N/A   Partly Cloudy
3:56 AM 30.9 °F 26.2 °F 24.1 °F 76% 30.32 in 10.0 mi NW 4.6 mph - N/A   Partly Cloudy
4:56 AM 32.0 °F 28.7 °F 25.0 °F 75% 30.32 in 10.0 mi West 3.5 mph - N/A   Partly Cloudy
5:56 AM 30.9 °F - 24.1 °F 76% 30.32 in 10.0 mi Calm Calm - N/A   Clear
6:56 AM 32.0 °F - 25.0 °F 75% 30.31 in 10.0 mi Calm Calm - N/A   Scattered Clouds
7:56 AM 30.9 °F 27.5 °F 25.0 °F 79% 30.34 in 9.0 mi SSW 3.5 mph - N/A   Scattered Clouds
8:56 AM 35.1 °F - 28.0 °F 76% 30.33 in 8.0 mi Calm Calm - N/A   Partly Cloudy
9:56 AM 39.9 °F 37.8 °F 30.0 °F 68% 30.34 in 10.0 mi SW 3.5 mph - N/A   Scattered Clouds
10:56 AM 43.0 °F 41.3 °F 28.0 °F 56% 30.34 in 10.0 mi Variable 3.5 mph - N/A   Overcast
11:56 AM 46.0 °F 44.8 °F 30.9 °F 56% 30.34 in 10.0 mi West 3.5 mph - N/A   Scattered Clouds
12:56 PM 46.9 °F - 28.9 °F 50% 30.32 in 10.0 mi WNW 5.8 mph - N/A   Partly Cloudy
1:56 PM 48.9 °F - 30.9 °F 50% 30.30 in 10.0 mi West 8.1 mph - N/A   Scattered Clouds
2:56 PM 51.1 °F - 30.0 °F 44% 30.27 in 10.0 mi Calm Calm - N/A   Scattered Clouds
3:56 PM 52.0 °F - 30.0 °F 43% 30.26 in 10.0 mi NW 8.1 mph 19.6 mph N/A   Scattered Clouds
4:56 PM 51.1 °F - 30.9 °F 46% 30.24 in 10.0 mi North 10.4 mph - N/A   Scattered Clouds
5:56 PM 51.1 °F - 30.0 °F 44% 30.23 in 10.0 mi NW 10.4 mph - N/A   Mostly Cloudy
6:56 PM 50.0 °F - 30.0 °F 46% 30.24 in 10.0 mi WNW 10.4 mph - N/A   Mostly Cloudy
7:56 PM 46.9 °F - 30.9 °F 54% 30.24 in 10.0 mi North 6.9 mph - N/A   Mostly Cloudy
8:56 PM 44.1 °F 39.5 °F 30.9 °F 60% 30.25 in 10.0 mi North 8.1 mph - N/A   Partly Cloudy
9:56 PM 43.0 °F 41.3 °F 30.0 °F 60% 30.26 in 10.0 mi North 3.5 mph - N/A   Partly Cloudy
10:56 PM 42.1 °F 40.2 °F 28.9 °F 60% 30.26 in 10.0 mi North 3.5 mph - N/A   Partly Cloudy
11:56 PM 39.0 °F - 28.0 °F 65% 30.26 in 10.0 mi Calm Calm - N/A   Clear